This is the latest recevied weather packets stored in our database for station/object KE0WPC. If no packets are shown the sender has not sent any weather packets the latest 10 day(s).
| Time | Temp. | Humidity | Pressure | Rain* | Wind** | Luminosity | Snow |
|---|---|---|---|---|---|---|---|
| 1777390858 | 6.67° C | 65% | 1019.4 hPa | - | - | - | - |
| 1777390555 | 6.11° C | 66% | 1019.4 hPa | - | - | - | - |
| 1777390251 | 6.11° C | 68% | 1019.4 hPa | - | - | - | - |
| 1777389947 | 6.11° C | 67% | 1019.4 hPa | - | - | - | - |
| 1777389644 | 5.56° C | 66% | 1019.4 hPa | - | - | - | - |
| 1777389340 | 6.11° C | 67% | 1019 hPa | - | - | - | - |
| 1777389038 | 6.11° C | 69% | 1019 hPa | - | - | - | - |
| 1777388736 | 5.56° C | 67% | 1019.4 hPa | - | - | - | - |
| 1777388432 | 5.56° C | 68% | 1019.4 hPa | - | - | - | - |
| 1777388132 | 5.56° C | 68% | 1019.4 hPa | - | - | - | - |
| 1777387828 | 5.56° C | 68% | 1019.4 hPa | - | - | - | - |
| 1777387525 | 5° C | 69% | 1019.4 hPa | - | - | - | - |
| 1777387221 | 5° C | 70% | 1019.4 hPa | - | - | - | - |
| 1777386915 | 5° C | 70% | 1019.4 hPa | - | - | - | - |
| 1777386608 | 5° C | 70% | 1019.4 hPa | - | - | - | - |
| 1777386304 | 5° C | 70% | 1019.4 hPa | - | - | - | - |
| 1777386001 | 5° C | 73% | 1019.4 hPa | - | - | - | - |
| 1777385698 | 5° C | 72% | 1019 hPa | - | - | - | - |
| 1777385395 | 4.44° C | 72% | 1019.4 hPa | - | - | - | - |
| 1777385092 | 5° C | 76% | 1019 hPa | - | - | - | - |
| 1777384787 | 4.44° C | 76% | 1019.4 hPa | - | - | - | - |
| 1777384484 | 4.44° C | 76% | 1019.4 hPa | - | - | - | - |
| 1777384178 | 4.44° C | 75% | 1019 hPa | - | - | - | - |
| 1777383875 | 4.44° C | 77% | 1019.7 hPa | - | - | - | - |
| 1777383571 | 3.89° C | 78% | 1019.4 hPa | - | - | - | - |
* Rain since midnight (hover to see other rain measurements)
** Current wind speed in m/s (hover to see current wind gust speed)